TimeCDT,TemperatureF,Dew PointF,Humidity,Sea Level PressureIn,VisibilityMPH,Wind Direction,Wind SpeedMPH,Gust SpeedMPH,PrecipitationIn,Events,Conditions,WindDirDegrees,DateUTC
12:15 AM,62.1,62.1,100,30.12,10.0,ESE,5.8,-,N/A,,Clear,120,2013-08-05 05:15:00
12:35 AM,61.9,61.9,100,30.12,10.0,SE,5.8,-,N/A,,Clear,130,2013-08-05 05:35:00
12:55 AM,61.2,61.2,100,30.12,10.0,ESE,5.8,-,N/A,,Clear,120,2013-08-05 05:55:00
1:15 AM,60.6,60.6,100,30.11,10.0,ESE,5.8,-,N/A,,Clear,120,2013-08-05 06:15:00
1:35 AM,60.1,60.1,100,30.10,10.0,ESE,6.9,-,N/A,,Clear,120,2013-08-05 06:35:00
1:55 AM,59.9,59.9,100,30.09,10.0,SE,6.9,-,N/A,,Clear,130,2013-08-05 06:55:00
2:15 AM,59.7,59.7,100,30.08,10.0,SE,6.9,-,N/A,,Clear,130,2013-08-05 07:15:00
2:35 AM,59.4,59.4,100,30.08,10.0,SSE,8.1,-,N/A,,Clear,150,2013-08-05 07:35:00
2:55 AM,59.2,59.2,100,30.08,10.0,SSE,6.9,-,N/A,,Clear,160,2013-08-05 07:55:00
3:15 AM,58.6,58.6,100,30.07,10.0,South,8.1,-,N/A,,Clear,170,2013-08-05 08:15:00
3:35 AM,59.2,59.2,100,30.07,10.0,SSE,8.1,-,N/A,,Clear,160,2013-08-05 08:35:00
3:55 AM,59.2,59.2,100,30.07,10.0,SSE,6.9,-,N/A,,Clear,160,2013-08-05 08:55:00
4:15 AM,59.2,59.2,100,30.06,10.0,South,6.9,-,N/A,,Clear,170,2013-08-05 09:15:00
4:35 AM,59.4,59.4,100,30.07,10.0,South,5.8,-,N/A,,Clear,170,2013-08-05 09:35:00
4:55 AM,59.5,59.5,100,30.06,10.0,SSE,6.9,-,N/A,,Clear,160,2013-08-05 09:55:00
5:15 AM,59.9,59.5,99,30.05,10.0,SSE,9.2,-,N/A,,Clear,160,2013-08-05 10:15:00
5:35 AM,59.9,59.4,98,30.05,10.0,SSE,6.9,-,N/A,,Clear,160,2013-08-05 10:35:00
5:55 AM,59.9,58.8,96,30.05,10.0,SSE,8.1,-,N/A,,Clear,160,2013-08-05 10:55:00
6:15 AM,60.3,59.0,96,30.07,10.0,South,8.1,-,N/A,,Clear,180,2013-08-05 11:15:00
6:35 AM,60.1,59.0,96,30.06,10.0,SSE,8.1,-,N/A,,Clear,160,2013-08-05 11:35:00
6:55 AM,60.4,59.2,96,30.07,10.0,South,6.9,-,N/A,,Scattered Clouds,180,2013-08-05 11:55:00
7:15 AM,60.6,59.9,97,30.09,10.0,South,6.9,-,N/A,,Mostly Cloudy,190,2013-08-05 12:15:00
7:35 AM,60.3,60.3,100,30.08,10.0,South,6.9,-,N/A,Rain,Light Rain,190,2013-08-05 12:35:00
7:55 AM,59.9,59.9,100,30.07,10.0,South,8.1,-,N/A,,Light Drizzle,180,2013-08-05 12:55:00
8:15 AM,59.9,59.9,100,30.06,10.0,South,6.9,-,N/A,Rain,Light Rain,190,2013-08-05 13:15:00
8:35 AM,59.9,59.9,100,30.07,10.0,Calm,Calm,-,N/A,Rain,Light Rain,0,2013-08-05 13:35:00
8:55 AM,60.6,60.6,100,30.08,10.0,Calm,Calm,-,N/A,Rain,Light Rain,0,2013-08-05 13:55:00
9:15 AM,60.8,60.8,100,30.07,10.0,SSW,5.8,-,0.01,Rain,Light Rain,210,2013-08-05 14:15:00
9:35 AM,59.9,59.9,100,30.03,10.0,South,10.4,-,0.04,Rain,Light Rain,190,2013-08-05 14:35:00
9:55 AM,59.9,59.9,100,29.98,10.0,South,15.0,-,0.06,Rain,Light Rain,170,2013-08-05 14:55:00
10:15 AM,63.1,63.1,100,29.97,10.0,SSW,11.5,-,N/A,,Scattered Clouds,200,2013-08-05 15:15:00
10:35 AM,65.5,65.5,100,29.96,10.0,South,10.4,17.3,N/A,,Mostly Cloudy,170,2013-08-05 15:35:00
10:55 AM,68.5,68.4,99,29.97,10.0,SSW,12.7,19.6,N/A,,Overcast,200,2013-08-05 15:55:00
11:15 AM,67.3,66.7,98,29.98,10.0,SSW,12.7,18.4,N/A,,Overcast,200,2013-08-05 16:15:00
11:35 AM,70.2,64.9,83,29.98,10.0,SSW,12.7,23.0,N/A,,Mostly Cloudy,200,2013-08-05 16:35:00
11:55 AM,70.5,59.9,69,29.98,10.0,SSW,15.0,-,N/A,,Mostly Cloudy,210,2013-08-05 16:55:00
12:15 PM,70.9,59.2,66,29.98,10.0,SW,18.4,26.5,N/A,,Mostly Cloudy,220,2013-08-05 17:15:00
12:35 PM,71.6,59.5,66,29.98,10.0,SSW,15.0,25.3,N/A,,Overcast,200,2013-08-05 17:35:00
12:55 PM,72.1,58.8,63,29.97,10.0,SSW,17.3,24.2,N/A,,Mostly Cloudy,200,2013-08-05 17:55:00
1:15 PM,72.1,59.2,64,29.95,10.0,South,15.0,20.7,N/A,,Mostly Cloudy,190,2013-08-05 18:15:00
1:35 PM,72.0,59.5,65,29.95,10.0,South,18.4,21.9,N/A,,Mostly Cloudy,190,2013-08-05 18:35:00
1:55 PM,70.5,59.2,67,29.95,10.0,South,15.0,-,N/A,,Overcast,190,2013-08-05 18:55:00
2:15 PM,70.2,59.4,69,29.95,10.0,South,17.3,21.9,N/A,,Overcast,180,2013-08-05 19:15:00
2:35 PM,69.8,59.0,68,29.95,10.0,South,12.7,21.9,N/A,,Overcast,190,2013-08-05 19:35:00
2:55 PM,68.9,63.0,81,29.94,10.0,South,15.0,19.6,N/A,Rain,Light Rain,190,2013-08-05 19:55:00
3:15 PM,67.1,66.6,98,29.91,10.0,South,16.1,19.6,0.01,Rain,Light Rain,180,2013-08-05 20:15:00
3:35 PM,66.4,66.4,100,29.93,10.0,South,10.4,17.3,0.03,Rain,Light Rain,190,2013-08-05 20:35:00
3:55 PM,66.7,66.7,100,29.92,10.0,South,5.8,-,0.04,Rain,Light Rain,190,2013-08-05 20:55:00
4:15 PM,66.9,66.9,100,29.92,10.0,South,4.6,-,N/A,,Overcast,180,2013-08-05 21:15:00
4:35 PM,67.3,67.3,100,29.91,10.0,South,6.9,-,N/A,,Overcast,180,2013-08-05 21:35:00
4:55 PM,67.6,67.6,100,29.90,10.0,South,8.1,-,N/A,,Overcast,180,2013-08-05 21:55:00
5:15 PM,68.2,68.2,100,29.90,10.0,South,6.9,-,N/A,,Overcast,180,2013-08-05 22:15:00
5:35 PM,68.2,68.2,100,29.89,10.0,South,8.1,-,N/A,,Overcast,170,2013-08-05 22:35:00
5:55 PM,68.0,68.0,100,29.89,10.0,South,8.1,-,N/A,,Overcast,180,2013-08-05 22:55:00
6:15 PM,68.5,68.5,100,29.88,10.0,South,5.8,-,N/A,,Overcast,180,2013-08-05 23:15:00
6:35 PM,68.9,68.9,100,29.88,10.0,South,6.9,-,N/A,,Overcast,180,2013-08-05 23:35:00
6:55 PM,68.9,68.9,100,29.88,10.0,South,5.8,-,N/A,,Overcast,170,2013-08-05 23:55:00
7:15 PM,68.9,68.9,100,29.88,10.0,South,5.8,-,N/A,,Overcast,180,2013-08-06 00:15:00
7:35 PM,68.9,68.9,100,29.88,10.0,South,6.9,-,N/A,,Overcast,180,2013-08-06 00:35:00
7:55 PM,68.9,68.9,100,29.88,10.0,South,4.6,-,N/A,,Overcast,190,2013-08-06 00:55:00
8:15 PM,68.9,68.9,100,29.88,10.0,Calm,Calm,-,N/A,,Overcast,0,2013-08-06 01:15:00
8:35 PM,68.2,68.2,100,29.89,7.0,NNE,3.5,-,0.01,Rain,Light Rain,30,2013-08-06 01:35:00
8:55 PM,68.0,68.0,100,29.89,7.0,Calm,Calm,-,0.01,,Overcast,0,2013-08-06 01:55:00
9:15 PM,67.5,67.5,100,29.89,5.0,SE,3.5,-,N/A,,Overcast,130,2013-08-06 02:15:00
9:35 PM,67.6,67.6,100,29.89,7.0,SSE,6.9,-,N/A,,Overcast,160,2013-08-06 02:35:00
9:55 PM,68.0,68.0,100,29.89,10.0,SSE,3.5,-,N/A,,Overcast,150,2013-08-06 02:55:00
10:15 PM,67.5,67.5,100,29.89,5.0,SSE,3.5,-,N/A,,Overcast,160,2013-08-06 03:15:00
10:35 PM,67.8,67.8,100,29.89,10.0,SSE,3.5,-,N/A,,Overcast,160,2013-08-06 03:35:00
10:55 PM,68.0,68.0,100,29.89,10.0,South,3.5,-,N/A,,Overcast,170,2013-08-06 03:55:00
11:15 PM,67.5,67.5,100,29.88,7.0,South,3.5,-,N/A,,Overcast,170,2013-08-06 04:15:00
11:35 PM,66.6,66.6,100,29.88,7.0,SSE,3.5,-,N/A,,Scattered Clouds,160,2013-08-06 04:35:00
11:55 PM,66.6,66.6,100,29.87,7.0,SSE,4.6,-,N/A,,Scattered Clouds,160,2013-08-06 04:55:00